Orbital Elements at Epoch 2459200.5 (2020-Dec-17.0) TDB
Reference: JPL 22 (heliocentric ecliptic J2000)
Element | Value | Uncertainty (1-sigma) | Units |
e | .123896861343468 | 1.0811e-07 | |
a | 2.553461180762024 | 1.8183e-08 | au |
q | 2.237095354903224 | 2.8229e-07 | au |
i | 9.010685433367589 | 6.2237e-06 | deg |
node | 277.8264504032883 | 3.5699e-05 | deg |
peri | 208.4053074931257 | 5.4854e-05 | deg |
M | 78.24359356178256 | 3.4156e-05 | deg |
tp | 2458876.579373065713 (2020-Jan-28.07937307) | 0.00014294 | TDB |
period | 1490.363880133712 4.08 | 1.5919e-05 4.358e-08 | d yr |
n | .2415517477300253 | 2.5801e-09 | deg/d |
Q | 2.869827006620825 | 2.0435e-08 | au |
|
| | Orbit Determination Parameters
Additional Information
|